Weather History for Nenana, AK

Change the Weather History Date:

Sunday, April 28, 2013

  Actual Average Record
Temperature  
Mean Temperature 32 °F -  
Max Temperature 45 °F 46 °F 79 °F (1976)
Min Temperature 19 °F 23 °F 19 °F (2013)
Degree Days  
Heating Degree Days 33    
Moisture  
Dew Point 8 °F    
Average Humidity 44    
Maximum Humidity 80    
Minimum Humidity 32    
Precipitation  
Precipitation 0.12 in - - ()
Sea Level Pressure  
Sea Level Pressure 30.11 in    
Wind  
Wind Speed 6 mph (SE)    
Max Wind Speed 15 mph    
Max Gust Speed 20 mph    
Visibility 10 miles    
Events Rain    
Averages and records for this station are not official NWS values.
T = Trace of Precipitation, MM = Missing Value Source: NWS Daily Summary

Daily Weather History Graph

Daily Weather History Graph

Search for Another Location

Airport:

Trip Planner

Search our weather history database for the weather conditions in past years. The results will help you decide how hot, cold, wet, or windy it might be!

Date:

Astronomy

Apr. 28, 2013 Rise Set
Actual Time 5:34 AM AKDT 10:15 PM AKDT
Civil Twilight 4:26 AM AKDT 11:24 PM AKDT
Nautical Twilight 2:26 AM AKDT 1:21 AM AKDT
Astronomical Twilight Sun does not rise Sun does not rise
Moon 1:44 AM AKDT (4/28) 7:08 AM AKDT (4/28)
Length of Visible Light 18h 58m
Length of Day
16h 40m
Waning Gibbous, 87% of the Moon is Illuminated
Apr 28
Waning Gibbous
May 2
Last Quarter
May 9
New
May 17
First Quarter
May 24
Full

Hourly Weather History & Observations

Time (AKDT) Temp. Windchill Dew Point Humidity Pressure Visibility Wind Dir Wind Speed Gust Speed Precip Events Conditions
12:53 AM 17.1 °F 10.0 °F 1.0 °F 50% 30.17 in 10.0 mi East 4.6 mph - N/A   Clear
1:53 AM 14.0 °F 6.5 °F -0.0 °F 54% 30.19 in 10.0 mi East 4.6 mph - N/A   Overcast
2:53 AM 15.1 °F 5.2 °F -4.0 °F 43% 30.19 in 10.0 mi ENE 6.9 mph - N/A   Clear
3:53 AM 14.0 °F 3.9 °F -5.1 °F 43% 30.19 in 10.0 mi East 6.9 mph - N/A   Clear
4:53 AM 12.9 °F 5.2 °F -5.1 °F 45% 30.19 in 10.0 mi East 4.6 mph - N/A   Clear
5:53 AM 10.9 °F 2.9 °F -2.9 °F 54% 30.19 in 10.0 mi ESE 4.6 mph - N/A   Mostly Cloudy
6:53 AM 14.0 °F 6.5 °F -4.0 °F 45% 30.19 in 10.0 mi ESE 4.6 mph - N/A   Overcast
7:53 AM 14.0 °F 5.1 °F -5.1 °F 43% 30.19 in 10.0 mi ESE 5.8 mph - N/A   Clear
8:53 AM 17.1 °F 8.7 °F -5.1 °F 37% 30.20 in 10.0 mi East 5.8 mph - N/A   Clear
9:53 AM 19.0 °F 12.3 °F -5.1 °F 34% 30.19 in 10.0 mi SE 4.6 mph - N/A   Clear
10:53 AM 21.9 °F - -4.0 °F 32% 30.19 in 10.0 mi Calm Calm - N/A   Clear
11:53 AM 25.0 °F - -0.9 °F 33% 30.18 in 10.0 mi Calm Calm - N/A   Mostly Cloudy
12:53 PM 30.9 °F 24.3 °F 3.9 °F 32% 30.17 in 10.0 mi Variable 6.9 mph - N/A   Partly Cloudy
1:53 PM 33.1 °F 28.7 °F 8.1 °F 35% 30.16 in 10.0 mi Variable 4.6 mph - N/A   Clear
2:53 PM 34.0 °F 26.0 °F 10.0 °F 37% 30.15 in 10.0 mi SW 10.4 mph - N/A   Clear
3:53 PM 37.0 °F 31.0 °F 10.0 °F 33% 30.14 in 10.0 mi WNW 8.1 mph 17.3 mph N/A   Clear
4:53 PM 37.9 °F 31.5 °F 10.0 °F 32% 30.13 in 10.0 mi WNW 9.2 mph 19.6 mph N/A   Clear
5:53 PM 37.0 °F 30.4 °F 10.9 °F 34% 30.13 in 10.0 mi West 9.2 mph - N/A   Clear
6:53 PM 37.0 °F 30.4 °F 12.0 °F 36% 30.14 in 10.0 mi WSW 9.2 mph 16.1 mph N/A   Clear
7:53 PM 36.0 °F 31.1 °F 12.9 °F 39% 30.14 in 10.0 mi Variable 5.8 mph - N/A   Clear
8:53 PM 35.1 °F 29.3 °F 12.9 °F 40% 30.14 in 10.0 mi Variable 6.9 mph - N/A   Clear
9:53 PM 33.1 °F 27.7 °F 12.0 °F 42% 30.15 in 10.0 mi WSW 5.8 mph - N/A   Clear
10:53 PM 33.1 °F 28.7 °F 12.0 °F 42% 30.15 in 10.0 mi WSW 4.6 mph - N/A   Partly Cloudy
11:53 PM 32.0 °F 27.5 °F 12.9 °F 45% 30.15 in 10.0 mi Variable 4.6 mph - N/A   Clear